FW7908 Weather Reports


time (UTC)temp
C
wind
direction
speed
KPH
gust
KPH
rain 1hr
cm
rain 24hr
cm
rain mn
cm
humidity
%
barometer
mb
20260502203048 22 69 4.8 22.5 0.00 3.05 0.00 45 1018.7
20260502201549 22 11 4.8 20.9 0.00 3.05 0.00 46 1018.9
20260502200104 22 49 0.0 14.5 0.00 3.05 0.00 49 1019.0
20260502194550 22 77 4.8 11.3 0.00 3.30 0.00 50 1019.3
20260502193053 22 328 3.2 14.5 0.00 3.30 0.00 48 1019.3
20260502191558 21 349 4.8 17.7 0.00 3.30 0.00 46 1019.4
20260502190058 21 61 6.4 12.9 0.00 3.30 0.00 48 1019.6
20260502184551 21 88 3.2 20.9 0.00 3.51 0.00 49 1019.6
20260502183052 20 44 6.4 24.1 0.00 3.51 0.00 48 1019.9
20260502181552 21 41 6.4 19.3 0.00 3.51 0.00 53 1020.1
20260502163055 19 311 3.2 16.1 0.00 3.81 0.00 68 1020.7
20260502161549 18 68 6.4 14.5 0.00 3.81 0.00 64 1020.7
20260502151612 16 35 6.4 12.9 0.00 3.84 0.00 76 1020.3
20260502130104 11 0 0.0 8.0 0.00 4.11 0.00 98 1018.6
20260502123054 11 20 1.6 11.3 0.00 4.55 0.00 98 1018.3
20260502121557 11 19 1.6 6.4 0.00 4.55 0.00 98 1018.3
20260502114553 10 0 0.0 1.6 0.00 4.90 0.00 98 1017.8
20260502113057 10 0 0.0 1.6 0.00 4.90 0.00 98 1017.5
20260502111553 10 75 0.0 3.2 0.00 4.90 0.00 98 1017.2
20260502110104 10 355 0.0 4.8 0.00 4.90 0.00 98 1017.0
20260502104557 10 0 0.0 4.8 0.00 4.98 0.00 98 1017.0
20260502103106 10 0 0.0 1.6 0.00 4.98 0.00 98 1016.8
20260502101613 10 9 0.0 3.2 0.00 4.98 0.00 98 1016.8
20260502090113 10 0 0.0 1.6 0.00 5.00 0.00 98 1016.5
20260502070109 10 58 0.0 3.2 0.00 5.23 0.00 97 1016.4
20260502064610 10 0 0.0 6.4 0.00 5.26 0.00 97 1016.3
20260502063054 10 359 3.2 6.4 0.00 5.26 0.00 97 1016.1
20260502061553 10 0 0.0 6.4 0.00 5.26 0.00 97 1016.4
20260502060058 10 0 0.0 4.8 0.00 5.26 0.00 97 1016.6
20260502054600 10 0 1.6 8.0 0.03 5.28 0.00 97 1016.6
20260502053052 10 26 3.2 12.9 0.05 5.28 0.00 97 1016.9
20260502051553 10 0 1.6 9.7 0.10 5.28 0.00 97 1017.2
20260502050057 10 340 0.0 4.8 0.15 5.28 0.00 97 1016.8
20260502044559 10 60 3.2 14.5 0.20 5.28 5.28 97 1016.3
20260502043054 10 72 3.2 9.7 0.20 5.26 5.23 97 1017.4
20260502041559 10 46 3.2 9.7 0.25 5.23 5.21 97 1017.5
20260502040057 10 347 3.2 6.4 0.23 5.18 5.16 97 1016.7
20260502034554 10 0 0.0 9.7 0.18 5.11 5.08 97 1017.0
20260502033101 10 58 0.0 4.8 0.15 5.05 5.03 97 1016.9
20260502031557 10 41 1.6 12.9 0.08 4.98 4.95 97 1016.9
20260502030057 10 25 4.8 11.3 0.08 4.95 4.93 97 1016.4
20260502024605 10 0 1.6 17.7 0.08 4.93 4.90 97 1016.3
20260502023107 10 31 3.2 14.5 0.05 4.90 4.88 97 1015.7
20260502021553 10 41 6.4 14.5 0.05 4.90 4.88 97 1015.4
20260502020055 10 354 3.2 14.5 0.03 4.88 4.85 97 1014.9
20260502014604 11 20 1.6 9.7 0.00 4.85 4.83 97 1014.6
20260502013057 11 25 4.8 12.9 0.03 4.85 4.83 97 1014.4
20260502011555 11 11 6.4 19.3 0.08 4.85 4.83 97 1013.7
20260502010058 11 57 4.8 16.1 0.15 4.85 4.83 97 1013.8
20260502004559 11 8 4.8 12.9 0.30 4.85 4.83 97 1013.7
20260502003059 11 45 1.6 9.7 0.46 4.83 4.80 97 1014.3
20260502001629 11 113 1.6 11.3 0.58 4.78 4.75 97 1014.2
20260502000115 11 0 0.0 4.8 0.71 4.70 4.67 97 1014.6
20260501234622 11 60 1.6 8.0 0.76 4.55 4.52 97 1015.0
20260501233050 11 0 0.0 3.2 0.76 4.37 4.34 97 1014.8
20260501231554 11 0 0.0 3.2 0.74 4.17 4.14 97 1015.4
20260501230056 11 50 0.0 6.4 0.71 3.99 3.96 97 1015.2
20260501224607 11 0 0.0 8.0 0.71 3.78 3.76 97 1014.4
20260501223051 11 37 1.6 8.0 0.79 3.61 3.58 97 1013.6
20260501221552 11 38 3.2 4.8 0.69 3.43 3.40 97 1013.2
20260501220053 11 66 0.0 3.2 0.64 3.28 3.25 97 1013.5
20260501214552 11 53 1.6 11.3 0.61 3.51 3.05 97 1012.4
20260501213056 11 51 0.0 11.3 0.46 3.25 2.79 97 1012.5
20260501211551 11 325 1.6 9.7 0.43 3.17 2.72 97 1011.7
20260501210052 11 52 1.6 14.5 0.36 3.07 2.62 97 1012.3
20260501204553 11 70 3.2 11.3 0.23 3.02 2.41 97 1012.7